| time (UTC) | temp C | wind direction | speed KPH | gust KPH | rain 1hr cm | rain 24hr cm | rain mn cm | humidity % | barometer mb |
| 20260507070513 | 6 | 25 | 0.0 | 0.0 | 0.00 | 0.00 | 0.00 | 84 | 1019.1 |
| 20260507070013 | 6 | 25 | 0.0 | 0.0 | 0.00 | 0.00 | 0.00 | 84 | 1019.0 |
| 20260507065517 | 6 | 25 | 0.0 | 0.0 | 0.00 | 0.00 | 0.00 | 83 | 1019.1 |
| 20260507065011 | 6 | 25 | 0.0 | 0.0 | 0.00 | 0.00 | 0.00 | 83 | 1019.1 |
| 20260507064511 | 6 | 25 | 0.0 | 0.0 | 0.00 | 0.00 | 0.00 | 83 | 1019.1 |
| 20260507064010 | 6 | 25 | 0.0 | 0.0 | 0.00 | 0.00 | 0.00 | 82 | 1019.0 |
| 20260507063508 | 6 | 25 | 0.0 | 0.0 | 0.00 | 0.00 | 0.00 | 82 | 1019.1 |
| 20260507063010 | 6 | 25 | 0.0 | 0.0 | 0.00 | 0.00 | 0.00 | 82 | 1019.2 |
| 20260507062508 | 7 | 25 | 0.0 | 0.0 | 0.00 | 0.00 | 0.00 | 82 | 1019.2 |
| 20260507062008 | 7 | 25 | 0.0 | 0.0 | 0.00 | 0.00 | 0.00 | 81 | 1019.2 |
| 20260507061507 | 7 | 25 | 0.0 | 0.0 | 0.00 | 0.00 | 0.00 | 81 | 1019.3 |
| 20260507061007 | 7 | 25 | 0.0 | 0.0 | 0.00 | 0.00 | 0.00 | 81 | 1019.3 |
| 20260507060505 | 7 | 25 | 0.0 | 0.0 | 0.00 | 0.00 | 0.00 | 80 | 1019.3 |
| 20260507060004 | 7 | 25 | 0.0 | 0.0 | 0.00 | 0.00 | 0.00 | 80 | 1019.3 |
| 20260507055504 | 7 | 25 | 0.0 | 0.0 | 0.00 | 0.00 | 0.00 | 81 | 1019.2 |
| 20260507055002 | 7 | 25 | 0.0 | 0.0 | 0.00 | 0.00 | 0.00 | 81 | 1019.2 |
| 20260507054502 | 7 | 25 | 0.0 | 0.0 | 0.00 | 0.00 | 0.00 | 80 | 1019.1 |
| 20260507054003 | 7 | 25 | 0.0 | 0.0 | 0.00 | 0.00 | 0.00 | 80 | 1019.1 |
| 20260507053501 | 7 | 25 | 0.0 | 0.0 | 0.00 | 0.00 | 0.00 | 80 | 1019.0 |
| 20260507053100 | 7 | 25 | 0.0 | 0.0 | 0.00 | 0.00 | 0.00 | 80 | 1019.0 |
| 20260507052559 | 8 | 25 | 0.0 | 0.0 | 0.00 | 0.00 | 0.00 | 80 | 1019.0 |
| 20260507052059 | 8 | 25 | 0.0 | 0.0 | 0.00 | 0.00 | 0.00 | 79 | 1019.0 |
| 20260507051558 | 8 | 25 | 0.0 | 0.0 | 0.00 | 0.00 | 0.00 | 79 | 1019.1 |
| 20260507051057 | 8 | 25 | 0.0 | 0.0 | 0.00 | 0.00 | 0.00 | 79 | 1019.2 |
| 20260507050556 | 8 | 25 | 0.0 | 0.0 | 0.00 | 0.00 | 0.00 | 79 | 1019.2 |
| 20260507050057 | 8 | 25 | 0.0 | 0.0 | 0.00 | 0.00 | 0.00 | 78 | 1019.3 |
| 20260507045555 | 8 | 25 | 0.0 | 0.0 | 0.00 | 0.00 | 0.00 | 78 | 1019.3 |
| 20260507045055 | 8 | 25 | 0.0 | 0.0 | 0.00 | 0.00 | 0.00 | 78 | 1019.2 |
| 20260507044555 | 8 | 25 | 0.0 | 0.0 | 0.00 | 0.00 | 0.00 | 77 | 1019.2 |
| 20260507044055 | 8 | 25 | 0.0 | 0.0 | 0.00 | 0.00 | 0.00 | 77 | 1019.2 |
| 20260507043553 | 8 | 25 | 0.0 | 0.0 | 0.00 | 0.00 | 0.00 | 77 | 1019.2 |
| 20260507043058 | 8 | 25 | 0.0 | 0.0 | 0.00 | 0.00 | 0.00 | 77 | 1019.2 |
| 20260507042553 | 9 | 25 | 0.0 | 0.0 | 0.00 | 0.00 | 0.00 | 76 | 1019.1 |
| 20260507042058 | 9 | 25 | 0.0 | 0.0 | 0.00 | 0.00 | 0.00 | 76 | 1019.1 |
| 20260507041553 | 9 | 25 | 0.0 | 0.0 | 0.00 | 0.00 | 0.00 | 76 | 1019.0 |
| 20260507041053 | 9 | 25 | 0.0 | 0.0 | 0.00 | 0.00 | 0.00 | 75 | 1019.0 |
| 20260507040553 | 9 | 25 | 0.0 | 0.0 | 0.00 | 0.00 | 0.00 | 76 | 1019.0 |
| 20260507040053 | 10 | 25 | 0.0 | 0.0 | 0.00 | 0.00 | 0.00 | 76 | 1019.0 |
| 20260507035552 | 10 | 25 | 0.0 | 0.0 | 0.00 | 0.00 | 0.00 | 75 | 1018.8 |
| 20260507035052 | 10 | 25 | 0.0 | 0.0 | 0.00 | 0.00 | 0.00 | 74 | 1018.8 |
| 20260507034559 | 10 | 25 | 0.0 | 1.6 | 0.00 | 0.00 | 0.00 | 74 | 1018.7 |
| 20260507034052 | 10 | 25 | 0.0 | 1.6 | 0.00 | 0.00 | 0.00 | 75 | 1018.7 |
| 20260507033554 | 10 | 25 | 0.0 | 0.0 | 0.00 | 0.00 | 0.00 | 74 | 1018.7 |
| 20260507033052 | 10 | 25 | 0.0 | 3.2 | 0.00 | 0.00 | 0.00 | 73 | 1018.7 |
| 20260507032551 | 10 | 25 | 0.0 | 3.2 | 0.00 | 0.00 | 0.00 | 72 | 1018.7 |
| 20260507032052 | 10 | 25 | 0.0 | 3.2 | 0.00 | 0.00 | 0.00 | 72 | 1018.7 |
| 20260507031551 | 10 | 25 | 0.0 | 3.2 | 0.00 | 0.00 | 0.00 | 72 | 1018.7 |
| 20260507031054 | 10 | 25 | 0.0 | 3.2 | 0.00 | 0.00 | 0.00 | 72 | 1018.6 |
| 20260507030550 | 10 | 25 | 0.0 | 1.6 | 0.00 | 0.00 | 0.00 | 72 | 1018.6 |
| 20260507030051 | 10 | 25 | 0.0 | 3.2 | 0.00 | 0.00 | 0.00 | 71 | 1018.6 |
| 20260507025552 | 10 | 25 | 1.6 | 3.2 | 0.00 | 0.00 | 0.00 | 70 | 1018.7 |
| 20260507025050 | 10 | 25 | 1.6 | 3.2 | 0.00 | 0.00 | 0.00 | 70 | 1018.5 |
| 20260507024558 | 11 | 25 | 0.0 | 1.6 | 0.00 | 0.00 | 0.00 | 70 | 1018.5 |
| 20260507024052 | 11 | 25 | 0.0 | 3.2 | 0.00 | 0.00 | 0.00 | 69 | 1018.4 |
| 20260507023549 | 11 | 25 | 0.0 | 3.2 | 0.00 | 0.00 | 0.00 | 69 | 1018.4 |
| 20260507023050 | 11 | 25 | 0.0 | 1.6 | 0.00 | 0.00 | 0.00 | 68 | 1018.3 |
| 20260507022549 | 11 | 25 | 0.0 | 0.0 | 0.00 | 0.00 | 0.00 | 66 | 1018.3 |
| 20260507022049 | 11 | 25 | 0.0 | 0.0 | 0.00 | 0.00 | 0.00 | 68 | 1018.2 |
| 20260507021551 | 11 | 25 | 0.0 | 0.0 | 0.00 | 0.00 | 0.00 | 64 | 1018.2 |
| 20260507021049 | 12 | 25 | 0.0 | 0.0 | 0.00 | 0.00 | 0.00 | 64 | 1018.2 |
| 20260507020551 | 12 | 25 | 0.0 | 0.0 | 0.00 | 0.00 | 0.00 | 64 | 1018.1 |
| 20260507020053 | 12 | 25 | 0.0 | 0.0 | 0.00 | 0.00 | 0.00 | 65 | 1017.9 |
| 20260507015548 | 12 | 25 | 0.0 | 0.0 | 0.00 | 0.00 | 0.00 | 64 | 1017.9 |
| 20260507015048 | 12 | 25 | 0.0 | 0.0 | 0.00 | 0.00 | 0.00 | 63 | 1017.9 |
| 20260507014550 | 12 | 25 | 0.0 | 0.0 | 0.00 | 0.00 | 0.00 | 62 | 1017.9 |
| 20260507014048 | 13 | 25 | 0.0 | 0.0 | 0.00 | 0.00 | 0.00 | 62 | 1017.8 |
| 20260507013550 | 13 | 25 | 0.0 | 0.0 | 0.00 | 0.00 | 0.00 | 62 | 1017.8 |
| 20260507013047 | 13 | 25 | 0.0 | 0.0 | 0.00 | 0.00 | 0.00 | 61 | 1017.7 |
| 20260507012551 | 13 | 25 | 0.0 | 1.6 | 0.00 | 0.00 | 0.00 | 61 | 1017.7 |
| 20260507012047 | 13 | 25 | 0.0 | 1.6 | 0.00 | 0.00 | 0.00 | 59 | 1017.6 |
| 20260507011548 | 13 | 25 | 0.0 | 3.2 | 0.00 | 0.00 | 0.00 | 58 | 1017.6 |
| 20260507011047 | 13 | 25 | 0.0 | 3.2 | 0.00 | 0.00 | 0.00 | 58 | 1017.5 |
| 20260507010547 | 13 | 25 | 1.6 | 3.2 | 0.00 | 0.00 | 0.00 | 58 | 1017.5 |
| 20260507010104 | 14 | 25 | 0.0 | 4.8 | 0.00 | 0.00 | 0.00 | 58 | 1017.4 |
| 20260507005547 | 14 | 25 | 1.6 | 4.8 | 0.00 | 0.00 | 0.00 | 57 | 1017.3 |
| 20260507005049 | 14 | 25 | 3.2 | 4.8 | 0.00 | 0.00 | 0.00 | 59 | 1017.4 |
| 20260507004546 | 14 | 25 | 1.6 | 4.8 | 0.00 | 0.00 | 0.00 | 58 | 1017.4 |
| 20260507004046 | 14 | 25 | 1.6 | 4.8 | 0.00 | 0.00 | 0.00 | 58 | 1017.3 |
| 20260507003549 | 15 | 25 | 1.6 | 4.8 | 0.00 | 0.00 | 0.00 | 57 | 1017.3 |
| 20260507003045 | 15 | 25 | 1.6 | 4.8 | 0.00 | 0.00 | 0.00 | 57 | 1017.2 |
| 20260507002545 | 15 | 25 | 1.6 | 4.8 | 0.00 | 0.00 | 0.00 | 56 | 1017.1 |
| 20260507002045 | 15 | 25 | 1.6 | 4.8 | 0.00 | 0.00 | 0.00 | 57 | 1017.1 |
| 20260507001554 | 15 | 25 | 1.6 | 4.8 | 0.00 | 0.00 | 0.00 | 58 | 1017.1 |
| 20260507001045 | 15 | 25 | 1.6 | 4.8 | 0.00 | 0.00 | 0.00 | 56 | 1017.1 |
| 20260507000545 | 15 | 25 | 0.0 | 4.8 | 0.00 | 0.00 | 0.00 | 56 | 1017.0 |
| 20260507000045 | 15 | 25 | 0.0 | 4.8 | 0.00 | 0.00 | 0.00 | 56 | 1017.0 |
| 20260506235544 | 15 | 25 | 1.6 | 4.8 | 0.00 | 0.00 | 0.00 | 55 | 1017.0 |
| 20260506235044 | 15 | 25 | 0.0 | 3.2 | 0.00 | 0.00 | 0.00 | 55 | 1017.0 |
| 20260506234545 | 15 | 25 | 0.0 | 3.2 | 0.00 | 0.00 | 0.00 | 55 | 1016.8 |
| 20260506234045 | 15 | 25 | 0.0 | 3.2 | 0.00 | 0.00 | 0.00 | 54 | 1016.7 |
| 20260506233544 | 15 | 25 | 0.0 | 4.8 | 0.00 | 0.00 | 0.00 | 52 | 1016.6 |
| 20260506233054 | 15 | 25 | 1.6 | 8.0 | 0.00 | 0.00 | 0.00 | 50 | 1016.5 |
| 20260506232543 | 15 | 13 | 3.2 | 8.0 | 0.00 | 0.00 | 0.00 | 49 | 1016.5 |
| 20260506232044 | 15 | 17 | 3.2 | 8.0 | 0.00 | 0.00 | 0.00 | 50 | 1016.4 |
| 20260506231543 | 15 | 31 | 3.2 | 8.0 | 0.00 | 0.00 | 0.00 | 51 | 1016.4 |
| 20260506231044 | 15 | 44 | 1.6 | 8.0 | 0.00 | 0.00 | 0.00 | 51 | 1016.4 |
| 20260506230544 | 16 | 17 | 4.8 | 9.7 | 0.00 | 0.00 | 0.00 | 51 | 1016.5 |
| 20260506230045 | 16 | 14 | 1.6 | 9.7 | 0.00 | 0.00 | 0.00 | 52 | 1016.3 |
| 20260506225542 | 16 | 19 | 4.8 | 9.7 | 0.00 | 0.00 | 0.00 | 51 | 1016.3 |
| 20260506225044 | 16 | 29 | 4.8 | 9.7 | 0.00 | 0.00 | 0.00 | 51 | 1016.3 |
| 20260506224543 | 16 | 15 | 3.2 | 9.7 | 0.00 | 0.00 | 0.00 | 52 | 1016.1 |
| 20260506224042 | 16 | 9 | 4.8 | 12.9 | 0.00 | 0.00 | 0.00 | 53 | 1016.2 |
| 20260506223541 | 16 | 351 | 3.2 | 12.9 | 0.00 | 0.00 | 0.00 | 53 | 1016.2 |
| 20260506223044 | 16 | 17 | 3.2 | 12.9 | 0.00 | 0.00 | 0.00 | 52 | 1016.1 |
| 20260506222542 | 16 | 5 | 4.8 | 8.0 | 0.00 | 0.00 | 0.00 | 52 | 1016.2 |
| 20260506222042 | 16 | 15 | 1.6 | 8.0 | 0.00 | 0.00 | 0.00 | 50 | 1016.1 |
| 20260506221547 | 16 | 19 | 4.8 | 9.7 | 0.00 | 0.00 | 0.00 | 51 | 1016.2 |
| 20260506221040 | 16 | 360 | 4.8 | 9.7 | 0.00 | 0.00 | 0.00 | 51 | 1016.3 |
| 20260506220540 | 17 | 9 | 3.2 | 9.7 | 0.00 | 0.00 | 0.00 | 49 | 1016.2 |
| 20260506220048 | 17 | 19 | 4.8 | 11.3 | 0.00 | 0.00 | 0.00 | 52 | 1016.2 |
| 20260506215540 | 17 | 9 | 3.2 | 9.7 | 0.00 | 0.00 | 0.00 | 50 | 1016.2 |
| 20260506215042 | 17 | 15 | 3.2 | 8.0 | 0.00 | 0.00 | 0.00 | 49 | 1016.3 |
| 20260506214540 | 17 | 340 | 3.2 | 8.0 | 0.00 | 0.00 | 0.00 | 52 | 1016.3 |
| 20260506214040 | 17 | 13 | 1.6 | 8.0 | 0.00 | 0.00 | 0.00 | 52 | 1016.4 |
| 20260506213541 | 17 | 12 | 3.2 | 8.0 | 0.00 | 0.00 | 0.00 | 50 | 1016.4 |
| 20260506213040 | 17 | 15 | 3.2 | 9.7 | 0.00 | 0.00 | 0.00 | 51 | 1016.4 |
| 20260506212540 | 17 | 14 | 4.8 | 9.7 | 0.00 | 0.00 | 0.00 | 52 | 1016.4 |
| 20260506212040 | 17 | 339 | 1.6 | 9.7 | 0.00 | 0.00 | 0.00 | 51 | 1016.3 |
| 20260506211547 | 17 | 11 | 3.2 | 12.9 | 0.00 | 0.00 | 0.00 | 53 | 1016.3 |
| 20260506211039 | 17 | 31 | 4.8 | 12.9 | 0.00 | 0.00 | 0.00 | 49 | 1016.4 |
| 20260506210539 | 17 | 360 | 3.2 | 8.0 | 0.00 | 0.00 | 0.00 | 51 | 1016.4 |
| 20260506210038 | 17 | 24 | 4.8 | 8.0 | 0.00 | 0.00 | 0.00 | 50 | 1016.5 |
| 20260506205538 | 17 | 178 | 1.6 | 9.7 | 0.00 | 0.00 | 0.00 | 49 | 1016.6 |
| 20260506205038 | 17 | 29 | 4.8 | 9.7 | 0.00 | 0.00 | 0.00 | 50 | 1016.7 |
| 20260506204538 | 17 | 18 | 3.2 | 8.0 | 0.00 | 0.00 | 0.00 | 48 | 1016.8 |
| 20260506204038 | 17 | 18 | 3.2 | 8.0 | 0.00 | 0.00 | 0.00 | 48 | 1016.8 |
| 20260506203537 | 17 | 355 | 3.2 | 8.0 | 0.00 | 0.00 | 0.00 | 50 | 1016.9 |
| 20260506203037 | 17 | 10 | 3.2 | 12.9 | 0.00 | 0.00 | 0.00 | 50 | 1017.0 |
| 20260506202537 | 17 | 5 | 4.8 | 12.9 | 0.00 | 0.00 | 0.00 | 49 | 1017.1 |
| 20260506202037 | 18 | 16 | 3.2 | 8.0 | 0.00 | 0.00 | 0.00 | 48 | 1017.2 |
| 20260506201536 | 18 | 17 | 4.8 | 8.0 | 0.00 | 0.00 | 0.00 | 52 | 1017.2 |
| 20260506201036 | 17 | 244 | 3.2 | 8.0 | 0.00 | 0.00 | 0.00 | 48 | 1017.2 |
| 20260506200535 | 17 | 360 | 3.2 | 14.5 | 0.00 | 0.00 | 0.00 | 51 | 1017.3 |
| 20260506200035 | 17 | 17 | 3.2 | 9.7 | 0.00 | 0.00 | 0.00 | 51 | 1017.3 |
| 20260506195535 | 17 | 360 | 4.8 | 9.7 | 0.00 | 0.00 | 0.00 | 51 | 1017.2 |
| 20260506195036 | 17 | 11 | 1.6 | 8.0 | 0.00 | 0.00 | 0.00 | 52 | 1017.2 |
| 20260506194537 | 17 | 21 | 3.2 | 9.7 | 0.00 | 0.00 | 0.00 | 48 | 1017.2 |
| 20260506194035 | 17 | 11 | 4.8 | 11.3 | 0.00 | 0.00 | 0.00 | 52 | 1017.2 |
| 20260506193533 | 17 | 16 | 1.6 | 9.7 | 0.00 | 0.00 | 0.00 | 53 | 1017.2 |
| 20260506193034 | 17 | 30 | 3.2 | 9.7 | 0.00 | 0.00 | 0.00 | 51 | 1017.3 |
| 20260506192531 | 17 | 5 | 1.6 | 9.7 | 0.00 | 0.00 | 0.00 | 53 | 1017.4 |
| 20260506192031 | 17 | 9 | 1.6 | 6.4 | 0.00 | 0.00 | 0.00 | 54 | 1017.5 |
| 20260506191532 | 17 | 330 | 3.2 | 6.4 | 0.00 | 0.00 | 0.00 | 53 | 1017.7 |
| 20260506191029 | 17 | 322 | 3.2 | 9.7 | 0.00 | 0.00 | 0.00 | 51 | 1017.7 |
| 20260506190528 | 17 | 5 | 4.8 | 9.7 | 0.00 | 0.00 | 0.00 | 57 | 1017.9 |
| 20260506190028 | 16 | 325 | 1.6 | 8.0 | 0.00 | 0.00 | 0.00 | 54 | 1017.9 |
| 20260506185525 | 16 | 343 | 3.2 | 8.0 | 0.00 | 0.00 | 0.00 | 53 | 1017.9 |
| 20260506185024 | 16 | 350 | 4.8 | 9.7 | 0.00 | 0.00 | 0.00 | 54 | 1017.9 |
| 20260506184526 | 16 | 13 | 3.2 | 9.7 | 0.00 | 0.00 | 0.00 | 57 | 1018.1 |
| 20260506184024 | 16 | 14 | 3.2 | 8.0 | 0.00 | 0.00 | 0.00 | 59 | 1018.1 |
| 20260506183521 | 15 | 42 | 1.6 | 8.0 | 0.00 | 0.00 | 0.00 | 55 | 1018.2 |
| 20260506183020 | 15 | 11 | 1.6 | 8.0 | 0.00 | 0.00 | 0.00 | 55 | 1018.3 |
| 20260506182520 | 15 | 21 | 3.2 | 12.9 | 0.00 | 0.00 | 0.00 | 55 | 1018.4 |
| 20260506182019 | 15 | 9 | 6.4 | 12.9 | 0.00 | 0.00 | 0.00 | 55 | 1018.6 |
| 20260506181519 | 15 | 24 | 0.0 | 14.5 | 0.00 | 0.00 | 0.00 | 57 | 1018.6 |
| 20260506181018 | 15 | 12 | 3.2 | 14.5 | 0.00 | 0.00 | 0.00 | 63 | 1018.7 |
| 20260506180516 | 15 | 281 | 1.6 | 6.4 | 0.00 | 0.00 | 0.00 | 61 | 1018.9 |
| 20260506180016 | 15 | 346 | 1.6 | 8.0 | 0.00 | 0.00 | 0.00 | 60 | 1019.1 |
| 20260506175515 | 15 | 24 | 3.2 | 4.8 | 0.00 | 0.00 | 0.00 | 61 | 1019.2 |
| 20260506175012 | 14 | 24 | 1.6 | 6.4 | 0.00 | 0.00 | 0.00 | 60 | 1019.3 |
| 20260506174512 | 14 | 24 | 0.0 | 8.0 | 0.00 | 0.00 | 0.00 | 60 | 1019.5 |
| 20260506174012 | 14 | 24 | 3.2 | 8.0 | 0.00 | 0.00 | 0.00 | 59 | 1019.5 |
| 20260506173512 | 15 | 24 | 1.6 | 6.4 | 0.00 | 0.00 | 0.00 | 59 | 1019.4 |
| 20260506173009 | 15 | 24 | 1.6 | 4.8 | 0.00 | 0.00 | 0.00 | 63 | 1019.3 |
| 20260506172508 | 15 | 150 | 0.0 | 6.4 | 0.00 | 0.00 | 0.00 | 60 | 1019.2 |
| 20260506172008 | 15 | 150 | 1.6 | 8.0 | 0.00 | 0.00 | 0.00 | 60 | 1019.3 |
| 20260506171508 | 15 | 24 | 3.2 | 8.0 | 0.00 | 0.00 | 0.00 | 60 | 1019.4 |
| 20260506171007 | 15 | 5 | 3.2 | 8.0 | 0.00 | 0.00 | 0.00 | 62 | 1019.3 |
| 20260506170507 | 15 | 333 | 1.6 | 8.0 | 0.00 | 0.00 | 0.00 | 63 | 1019.2 |
| 20260506170010 | 15 | 338 | 3.2 | 8.0 | 0.00 | 0.00 | 0.00 | 61 | 1019.3 |
| 20260506165508 | 15 | 17 | 1.6 | 8.0 | 0.00 | 0.00 | 0.00 | 62 | 1019.4 |
| 20260506165010 | 15 | 360 | 3.2 | 8.0 | 0.00 | 0.00 | 0.00 | 61 | 1019.5 |
| 20260506164504 | 15 | 340 | 1.6 | 8.0 | 0.00 | 0.00 | 0.00 | 62 | 1019.6 |
| 20260506164003 | 14 | 360 | 1.6 | 8.0 | 0.00 | 0.00 | 0.00 | 61 | 1019.3 |
| 20260506163502 | 14 | 36 | 1.6 | 9.7 | 0.00 | 0.00 | 0.00 | 61 | 1019.2 |
| 20260506163103 | 13 | 360 | 3.2 | 9.7 | 0.00 | 0.00 | 0.00 | 61 | 1019.0 |
| 20260506162603 | 13 | 13 | 4.8 | 9.7 | 0.00 | 0.00 | 0.00 | 62 | 1018.8 |
| 20260506162101 | 13 | 21 | 4.8 | 9.7 | 0.00 | 0.00 | 0.00 | 63 | 1018.5 |
| 20260506161609 | 13 | 10 | 4.8 | 9.7 | 0.00 | 0.00 | 0.00 | 64 | 1018.3 |
| 20260506161057 | 13 | 5 | 3.2 | 9.7 | 0.00 | 0.00 | 0.00 | 65 | 1018.2 |
| 20260506160556 | 13 | 16 | 3.2 | 8.0 | 0.00 | 0.00 | 0.00 | 65 | 1018.4 |
| 20260506160100 | 13 | 23 | 1.6 | 9.7 | 0.00 | 0.00 | 0.00 | 67 | 1018.2 |
| 20260506155553 | 13 | 10 | 4.8 | 9.7 | 0.00 | 0.00 | 0.00 | 65 | 1018.1 |
| 20260506155054 | 13 | 344 | 3.2 | 14.5 | 0.00 | 0.00 | 0.00 | 67 | 1017.9 |
| 20260506154551 | 12 | 346 | 1.6 | 14.5 | 0.00 | 0.00 | 0.00 | 68 | 1017.8 |
| 20260506154050 | 12 | 5 | 3.2 | 8.0 | 0.00 | 0.00 | 0.00 | 69 | 1017.9 |
| 20260506153547 | 12 | 9 | 1.6 | 8.0 | 0.00 | 0.00 | 0.00 | 69 | 1018.1 |
| 20260506153046 | 12 | 28 | 3.2 | 8.0 | 0.00 | 0.00 | 0.00 | 72 | 1018.2 |
| 20260506152546 | 12 | 19 | 1.6 | 8.0 | 0.00 | 0.00 | 0.00 | 74 | 1018.3 |
| 20260506152044 | 12 | 159 | 1.6 | 8.0 | 0.00 | 0.00 | 0.00 | 75 | 1018.4 |
| 20260506151543 | 11 | 5 | 0.0 | 8.0 | 0.00 | 0.00 | 0.00 | 77 | 1018.2 |
| 20260506151041 | 11 | 5 | 3.2 | 8.0 | 0.00 | 0.00 | 0.00 | 78 | 1018.3 |
| 20260506150539 | 11 | 9 | 3.2 | 8.0 | 0.00 | 0.00 | 0.00 | 79 | 1017.8 |
| 20260506150045 | 10 | 360 | 1.6 | 6.4 | 0.00 | 0.00 | 0.00 | 81 | 1017.7 |
| 20260506145539 | 10 | 360 | 1.6 | 6.4 | 0.00 | 0.00 | 0.00 | 81 | 1017.9 |
| 20260506145038 | 10 | 219 | 1.6 | 6.4 | 0.00 | 0.00 | 0.00 | 81 | 1018.0 |
| 20260506144553 | 10 | 346 | 1.6 | 4.8 | 0.00 | 0.00 | 0.00 | 81 | 1017.7 |
| 20260506144033 | 10 | 360 | 1.6 | 6.4 | 0.00 | 0.00 | 0.00 | 82 | 1017.9 |
| 20260506143532 | 10 | 49 | 1.6 | 8.0 | 0.00 | 0.00 | 0.00 | 81 | 1018.0 |
| 20260506143031 | 9 | 175 | 1.6 | 8.0 | 0.00 | 0.00 | 0.00 | 82 | 1017.8 |
| 20260506142530 | 9 | 292 | 1.6 | 6.4 | 0.00 | 0.00 | 0.00 | 83 | 1017.6 |
| 20260506142028 | 9 | 5 | 1.6 | 8.0 | 0.00 | 0.00 | 0.00 | 83 | 1017.5 |
| 20260506141527 | 8 | 15 | 0.0 | 8.0 | 0.00 | 0.00 | 0.00 | 84 | 1017.6 |
| 20260506141027 | 8 | 23 | 1.6 | 6.4 | 0.00 | 0.00 | 0.00 | 84 | 1017.7 |
| 20260506140526 | 8 | 30 | 1.6 | 11.3 | 0.00 | 0.00 | 0.00 | 85 | 1017.9 |
| 20260506140038 | 8 | 30 | 1.6 | 11.3 | 0.00 | 0.00 | 0.00 | 85 | 1018.1 |
| 20260506135623 | 8 | 15 | 1.6 | 8.0 | 0.00 | 0.00 | 0.00 | 85 | 1018.2 |
| 20260506135023 | 8 | 355 | 1.6 | 6.4 | 0.00 | 0.00 | 0.00 | 86 | 1018.2 |
| 20260506134530 | 8 | 9 | 1.6 | 9.7 | 0.00 | 0.00 | 0.00 | 86 | 1018.3 |
| 20260506134022 | 8 | 9 | 1.6 | 9.7 | 0.00 | 0.00 | 0.00 | 86 | 1018.4 |
| 20260506133520 | 8 | 5 | 3.2 | 6.4 | 0.00 | 0.00 | 0.00 | 87 | 1018.3 |
| 20260506133022 | 8 | 10 | 1.6 | 9.7 | 0.00 | 0.00 | 0.00 | 87 | 1018.2 |
| 20260506132519 | 8 | 355 | 3.2 | 9.7 | 0.00 | 0.00 | 0.00 | 87 | 1017.9 |
| 20260506132018 | 8 | 28 | 1.6 | 4.8 | 0.00 | 0.00 | 0.00 | 88 | 1018.0 |
| 20260506131523 | 8 | 30 | 0.0 | 4.8 | 0.00 | 0.00 | 0.00 | 88 | 1017.8 |
| 20260506131018 | 8 | 32 | 0.0 | 6.4 | 0.00 | 0.00 | 0.00 | 89 | 1017.9 |
| 20260506130518 | 8 | 30 | 1.6 | 8.0 | 0.00 | 0.00 | 0.00 | 89 | 1017.9 |
| 20260506130018 | 8 | 9 | 1.6 | 8.0 | 0.00 | 0.00 | 0.00 | 89 | 1017.8 |
| 20260506125517 | 8 | 24 | 1.6 | 8.0 | 0.00 | 0.00 | 0.00 | 89 | 1017.6 |
| 20260506125015 | 8 | 14 | 3.2 | 8.0 | 0.00 | 0.00 | 0.00 | 89 | 1017.5 |
| 20260506124514 | 8 | 20 | 3.2 | 6.4 | 0.00 | 0.00 | 0.00 | 90 | 1017.7 |
| 20260506124013 | 8 | 14 | 1.6 | 6.4 | 0.00 | 0.00 | 0.00 | 90 | 1017.7 |
| 20260506123513 | 8 | 19 | 1.6 | 6.4 | 0.00 | 0.00 | 0.00 | 90 | 1017.8 |
| 20260506123014 | 7 | 20 | 0.0 | 6.4 | 0.00 | 0.00 | 0.00 | 90 | 1017.6 |
| 20260506122512 | 7 | 19 | 1.6 | 6.4 | 0.00 | 0.00 | 0.00 | 90 | 1017.3 |
| 20260506122012 | 7 | 19 | 0.0 | 4.8 | 0.00 | 0.00 | 0.00 | 90 | 1017.5 |
| 20260506121510 | 7 | 19 | 1.6 | 4.8 | 0.00 | 0.00 | 0.00 | 90 | 1017.8 |
| 20260506121009 | 7 | 19 | 0.0 | 3.2 | 0.00 | 0.00 | 0.00 | 90 | 1018.0 |
| 20260506120510 | 7 | 19 | 0.0 | 4.8 | 0.00 | 0.00 | 0.00 | 90 | 1017.8 |
| 20260506120015 | 7 | 19 | 1.6 | 4.8 | 0.00 | 0.00 | 0.00 | 90 | 1017.9 |
| 20260506115514 | 7 | 21 | 1.6 | 4.8 | 0.00 | 0.00 | 0.00 | 90 | 1018.0 |
| 20260506115007 | 7 | 9 | 1.6 | 4.8 | 0.00 | 0.00 | 0.00 | 90 | 1018.0 |
| 20260506114514 | 7 | 9 | 0.0 | 3.2 | 0.00 | 0.00 | 0.00 | 91 | 1017.7 |
| 20260506114009 | 7 | 9 | 0.0 | 3.2 | 0.00 | 0.00 | 0.00 | 91 | 1017.4 |
| 20260506113503 | 7 | 5 | 0.0 | 6.4 | 0.00 | 0.00 | 0.00 | 91 | 1017.3 |
| 20260506113004 | 7 | 12 | 1.6 | 6.4 | 0.00 | 0.00 | 0.00 | 91 | 1017.1 |
| 20260506112503 | 7 | 360 | 1.6 | 4.8 | 0.00 | 0.00 | 0.00 | 91 | 1017.1 |
| 20260506112003 | 7 | 16 | 0.0 | 6.4 | 0.00 | 0.00 | 0.00 | 91 | 1017.2 |
| 20260506111502 | 7 | 15 | 1.6 | 4.8 | 0.00 | 0.00 | 0.00 | 91 | 1017.1 |
| 20260506111002 | 7 | 15 | 1.6 | 4.8 | 0.00 | 0.00 | 0.00 | 91 | 1017.3 |
| 20260506110504 | 7 | 16 | 1.6 | 3.2 | 0.00 | 0.00 | 0.00 | 91 | 1017.2 |
| 20260506110002 | 7 | 16 | 0.0 | 3.2 | 0.00 | 0.00 | 0.00 | 91 | 1017.2 |
| 20260506105600 | 7 | 16 | 0.0 | 3.2 | 0.00 | 0.00 | 0.00 | 91 | 1016.9 |
| 20260506105059 | 7 | 16 | 0.0 | 3.2 | 0.00 | 0.00 | 0.00 | 90 | 1016.8 |
| 20260506104606 | 7 | 16 | 0.0 | 3.2 | 0.00 | 0.00 | 0.00 | 90 | 1016.8 |
| 20260506104058 | 7 | 16 | 0.0 | 3.2 | 0.00 | 0.00 | 0.00 | 90 | 1016.5 |
| 20260506103558 | 7 | 16 | 0.0 | 4.8 | 0.00 | 0.00 | 0.00 | 90 | 1016.4 |
| 20260506103105 | 7 | 16 | 0.0 | 4.8 | 0.00 | 0.00 | 0.00 | 90 | 1016.2 |
| 20260506102556 | 7 | 13 | 3.2 | 4.8 | 0.00 | 0.00 | 0.00 | 90 | 1016.0 |
| 20260506102059 | 7 | 22 | 0.0 | 4.8 | 0.00 | 0.00 | 0.00 | 90 | 1016.2 |
| 20260506101554 | 7 | 22 | 0.0 | 4.8 | 0.00 | 0.00 | 0.00 | 90 | 1016.0 |
| 20260506101053 | 7 | 22 | 1.6 | 4.8 | 0.00 | 0.00 | 0.00 | 90 | 1015.8 |
| 20260506100552 | 7 | 5 | 1.6 | 4.8 | 0.00 | 0.00 | 0.00 | 90 | 1015.7 |
| 20260506100106 | 7 | 5 | 1.6 | 4.8 | 0.00 | 0.00 | 0.00 | 90 | 1015.5 |
| 20260506095552 | 7 | 5 | 0.0 | 4.8 | 0.00 | 0.00 | 0.00 | 90 | 1015.4 |
| 20260506095052 | 7 | 5 | 0.0 | 4.8 | 0.00 | 0.00 | 0.00 | 90 | 1015.5 |
| 20260506094600 | 7 | 5 | 1.6 | 3.2 | 0.00 | 0.00 | 0.00 | 90 | 1015.3 |
| 20260506094050 | 7 | 5 | 0.0 | 3.2 | 0.00 | 0.00 | 0.00 | 90 | 1015.0 |
| 20260506093550 | 7 | 5 | 1.6 | 3.2 | 0.00 | 0.00 | 0.00 | 90 | 1015.0 |
| 20260506093049 | 7 | 5 | 0.0 | 4.8 | 0.00 | 0.00 | 0.00 | 90 | 1015.1 |
| 20260506092549 | 7 | 5 | 1.6 | 4.8 | 0.00 | 0.00 | 0.00 | 90 | 1015.2 |
| 20260506092049 | 7 | 5 | 0.0 | 3.2 | 0.00 | 0.00 | 0.00 | 90 | 1015.2 |
| 20260506091549 | 7 | 5 | 0.0 | 3.2 | 0.00 | 0.00 | 0.00 | 90 | 1015.1 |
| 20260506091048 | 7 | 5 | 0.0 | 4.8 | 0.00 | 0.00 | 0.00 | 90 | 1015.1 |
| 20260506090546 | 7 | 5 | 0.0 | 4.8 | 0.00 | 0.00 | 0.00 | 90 | 1015.1 |
| 20260506090046 | 7 | 5 | 0.0 | 3.2 | 0.00 | 0.00 | 0.00 | 90 | 1014.9 |
| 20260506085545 | 7 | 5 | 0.0 | 3.2 | 0.00 | 0.00 | 0.00 | 90 | 1014.6 |
| 20260506085046 | 7 | 5 | 0.0 | 3.2 | 0.00 | 0.00 | 0.00 | 90 | 1014.5 |
| 20260506084546 | 7 | 5 | 0.0 | 3.2 | 0.00 | 0.00 | 0.00 | 90 | 1014.4 |
| 20260506084044 | 7 | 5 | 0.0 | 3.2 | 0.00 | 0.00 | 0.00 | 90 | 1014.2 |
| 20260506083543 | 7 | 5 | 0.0 | 1.6 | 0.00 | 0.00 | 0.00 | 90 | 1014.0 |
| 20260506083048 | 7 | 5 | 0.0 | 3.2 | 0.00 | 0.00 | 0.00 | 90 | 1013.6 |
| 20260506082542 | 7 | 5 | 0.0 | 3.2 | 0.00 | 0.00 | 0.00 | 90 | 1013.9 |
| 20260506082042 | 7 | 5 | 0.0 | 3.2 | 0.00 | 0.00 | 0.00 | 90 | 1013.9 |
| 20260506081559 | 7 | 5 | 0.0 | 4.8 | 0.00 | 0.00 | 0.00 | 90 | 1014.1 |
| 20260506081042 | 7 | 5 | 0.0 | 4.8 | 0.00 | 0.00 | 0.00 | 90 | 1013.9 |
| 20260506080542 | 7 | 5 | 0.0 | 3.2 | 0.00 | 0.00 | 0.00 | 90 | 1013.6 |
| 20260506073039 | 7 | 17 | 0.0 | 3.2 | 0.00 | 0.00 | 0.00 | 90 | 1013.5 |
| 20260506072541 | 7 | 17 | 0.0 | 3.2 | 0.00 | 0.00 | 0.00 | 90 | 1013.5 |
| 20260506072039 | 7 | 17 | 0.0 | 3.2 | 0.00 | 0.00 | 0.00 | 90 | 1013.6 |
| 20260506071542 | 7 | 17 | 0.0 | 3.2 | 0.00 | 0.00 | 0.00 | 90 | 1013.3 |
| 20260506071038 | 7 | 17 | 0.0 | 3.2 | 0.00 | 0.00 | 0.00 | 90 | 1013.1 |